Location: Callanans Corners
(42.5326°N, 73.8846°W)
Time: 15:42:24
(UTC+00:00)

SL-4 R/B - Pass Details

Date: 06 October 2022
Orbit: 424 x 648 km, 51.6° (Epoch: 28 November)

Event Time Altitude Azimuth Distance (km) Brightness Sun altitude
Rises 23:39:08 0° 301° (WNW) 2,804 6.9 -13.9°
Reaches altitude 10° 23:41:23 10° 297° (WNW) 1,935 6.0 -14.3°
Maximum altitude 23:45:45 55° 220° (SW) 743 2.8 -15.1°
Enters shadow 23:49:26 15° 145° (SE) 1,695 4.1 -15.8°
